Skip Page Navigation
NASA JPL Caltech
NASA Logo - Jet Propulsion Laboratory + View the NASA Portal
+ Near-Earth Object (NEO) Program
Search JPL
JPL Home Earth Solar System Stars & Galaxies Technology
JPL Solar System Dynamics
BODIES ORBITS EPHEMERIDES TOOLS PHYSICAL DATA DISCOVERY FAQ SITE MAP
JPL Small-Body Database Browser
Search: [ help ]  
5190 Fry (1990 UR2)
Classification: Main-belt Asteroid          SPK-ID: 2005190
Ephemeris | Orbit Diagram | Orbital Elements | Physical Parameters | Discovery Circumstances | Close-Approach Data ]

[ show orbit diagram ]
Orbital Elements at Epoch 2457600.5 (2016-Jul-31.0) TDB
Reference: JPL 18 (heliocentric ecliptic J2000)
 Element Value Uncertainty (1-sigma)   Units 
e .2086040083103403 6.4846e-08  
a 3.144270152920056 2.8614e-08 au
q 2.488362795810366 1.9865e-07 au
i 14.09531407210053 8.6154e-06 deg
node 312.068090308641 2.8797e-05 deg
peri 148.4830879726686 3.7138e-05 deg
M 186.7314362130738 2.1623e-05 deg
tp 2458580.656628869320
(2019-Apr-07.15662887)
0.00012755 JED
period 2036.470890512337
5.58
2.7799e-05
7.611e-08
d
yr
n .1767764035701148 2.4131e-09 deg/d
Q 3.800177510029747 3.4583e-08 au
  Orbit Determination Parameters
   # obs. used (total)      851  
   data-arc span      17251 days (47.23 yr)  
   first obs. used      1969-01-15  
   last obs. used      2016-04-09  
   planetary ephem.      DE431  
   SB-pert. ephem.      SB431-BIG16  
   condition code      0  
   fit RMS      .51163  
   data source      ORB  
   producer      Otto Matic  
   solution date      2016-Apr-25 12:51:07  

Additional Information
 Earth MOID = 1.51489 au 
 Jupiter MOID = 1.39359 au 
 T_jup = 3.130 
[ show covariance matrix ]

Ephemeris | Orbit Diagram | Orbital Elements | Physical Parameters | Discovery Circumstances | Close-Approach Data ]

Physical Parameter Table
Parameter Symbol Value Units Sigma Reference Notes
absolute magnitude H 12.0 mag n/a MPO337296  

5190 Fry           Discovered 1990 Oct. 16 by S. Ueda and H. Kaneda at Kushiro.
Stephen Fry (b. 1957) is an English writer, actor, comedian, TV presenter and activist. He studied English Literature at Cambridge University, where he was very active in the Cambridge Footlights. Fry is the long-time host of the BBC comedy quiz show "QI".
NOTE: some special characters may not display properly (any characters within {} are an attempt to place the proper accent above a character)
Reference: MPC batch dated 2015-07-02Last Updated: 2015-07-06

[ show close-approach data ]
Alternate Designations
 1990 UR2 = 1969 AN = 1986 AN1 = 1989 PS 
Ephemeris | Orbit Diagram | Orbital Elements | Physical Parameters | Discovery Circumstances | Close-Approach Data ]
ABOUT SSD CREDITS/AWARDS PRIVACY/COPYRIGHT GLOSSARY LINKS
FirstGov 2016-May-04 17:24 UT
(server date/time)  
NASA Home Page
Site Manager:   Ryan S. Park
Webmaster  Alan B. Chamberlin